Meteo Giornale » Osservazioni meteo Turchia » Balikesir Edremit
ore: 04:50 - Osservazioni Meteo Balikesir Edremit
Lat. 39° 33' N Lon. 27° 1' E Alt. 15 metri s.l.m.
22 °C
Sereno
Temp. 24 Ore
21 °C
32 °C
Est
24 Km/h
Dew point 18 °C
Umidità 78 %
Visibilità 10 Km
Il sole sorge alle ore 06:40
Il sole tramonta alle ore 19:43
| Data e Ora | Cielo e Fenomeni | T °C | DP °C | Um. % | Pres. hPa | Vis. km | Vento km/h | |
|---|---|---|---|---|---|---|---|---|
| Oggi h: 04:50 | Sereno | 22 | 18 | 78 | 1013 | 10 | E 24 | |
| Oggi h: 03:50 | Sereno | 23 | 18 | 73 | 1013 | 10 | E/NE 20.3 | |
| Oggi h: 02:50 | Sereno | 23 | 18 | 73 | 1013 | 10 | E/NE 22.2 | |
| Oggi h: 01:50 | Sereno | 24 | 17 | 64 | 1013 | 10 | E 27.8 | |
| Oggi h: 00:50 | Sereno | 24 | 17 | 64 | 1014 | 10 | E 25.9 | |
| Ieri h: 23:50 | Sereno | 25 | 17 | 61 | 1014 | 10 | E 25.9 | |
| Ieri h: 22:50 | Sereno | 25 | 16 | 57 | 1014 | 10 | E 25.9 | |
| Ieri h: 21:50 | Sereno | 26 | 16 | 54 | 1014 | 10 | E 20.3 | |
| Ieri h: 20:50 | Sereno | 27 | 16 | 50 | 1013 | 10 | E 22.2 | |
| Ieri h: 19:50 | Sereno | 28 | 16 | 48 | 1013 | 10 | E/NE 24 | |
| Ieri h: 18:50 | Sereno | 30 | 16 | 42 | 1013 | 10 | E/NE 27.8 | |
| Ieri h: 17:50 | Sereno | 31 | 15 | 37 | 1012 | 10 | N/NE 24 | |
| Ieri h: 16:50 | Sereno | 32 | 15 | 35 | 1012 | 10 | N/NE 20.3 | |
| Ieri h: 15:50 | Sereno | 32 | 16 | 38 | 1013 | 10 | E/NE 24 | |
| Ieri h: 14:50 | Poco Nuvoloso | 32 | 16 | 38 | 1013 | 10 | E/NE 27.8 | |
| Ieri h: 13:50 | Poco Nuvoloso | 31 | 16 | 40 | 1014 | 10 | E/NE 27.8 | |
| Ieri h: 12:50 | Poco Nuvoloso | 31 | 17 | 43 | 1014 | 10 | E/NE 25.9 | |
| Ieri h: 11:50 | Poco Nuvoloso | 29 | 17 | 48 | 1015 | 10 | E 25.9 | |
| Ieri h: 10:50 | Poco Nuvoloso | 27 | 17 | 54 | 1015 | 10 | E/NE 25.9 | |
| Ieri h: 09:50 | Poco Nuvoloso | 26 | 18 | 61 | 1015 | 10 | E 24 | |
| Ieri h: 08:50 | Poco Nuvoloso | 24 | 17 | 64 | 1016 | 10 | E/NE 20.3 | |
| Ieri h: 07:50 | Poco Nuvoloso | 23 | 17 | 68 | 1016 | 10 | E 20.3 | |
| Ieri h: 06:50 | Sereno | 21 | 17 | 77 | 1015 | 10 | E 18.5 | |
| Ieri h: 05:50 | Sereno | 21 | 17 | 77 | 1015 | 10 | E 14.8 | |



